CUTE-1 (CO-55) 1 27844U 03031E 26095.46987273 .00000480 00000+0 22670-3 0 9991 2 27844 98.6770 104.9370 0010309 42.6071 317.5906 14.24289988181322 CUBESAT XI-IV (CO-57) 1 27848U 03031J 26095.00030604 .00000375 00000+0 18383-3 0 9991 2 27848 98.6802 104.2449 0010479 60.3929 299.8292 14.23580899180962 CUBESAT XI-V 1 28895U 05043F 26095.35546362 .00002609 00000+0 41900-3 0 9993 2 28895 98.2887 249.4930 0015301 78.6033 281.6891 14.72438139 91034 CUTE-1.7+APD II (CO-65) 1 32785U 08021C 26095.57713109 .00007309 00000+0 46908-3 0 9999 2 32785 97.8239 75.5456 0007208 277.4597 82.5811 15.08765949974240 CANX-2 1 32790U 08021H 26095.50227158 .00005544 00000+0 39385-3 0 9992 2 32790 97.8580 73.9195 0008964 293.4111 66.6171 15.05094671973871 SEEDS II (CO-66) 1 32791U 08021J 26095.54522637 .00023544 00000+0 80405-3 0 9996 2 32791 97.7530 90.1212 0003100 158.7262 201.4107 15.30309775976170 SWISSCUBE 1 35932U 09051B 26095.57423045 .00001797 00000+0 36535-3 0 9997 2 35932 98.4077 2.1919 0008088 79.7428 280.4684 14.62338946878542 BEESAT-1 1 35933U 09051C 26095.61488840 .00001496 00000+0 31092-3 0 9996 2 35933 98.4007 2.0188 0006551 91.3359 268.8591 14.61600139878585 ITUPSAT1 1 35935U 09051E 26095.26841027 .00001364 00000+0 29225-3 0 9998 2 35935 98.4093 0.9348 0008679 102.1469 258.0703 14.60328443878099 TISAT 1 1 36799U 10035E 26095.27463230 .00026947 00000+0 95773-3 0 9993 2 36799 98.0673 35.5460 0004300 117.9861 242.1812 15.28979942856557 AEROCUBE 4.5A 1 38767U 12048K 26095.50249636 .00136870 00000+0 11720-2 0 9990 2 38767 64.6344 286.3353 0034339 209.7497 150.1700 15.67990398361180 STRAND-1 1 39090U 13009E 26095.43943824 .00000496 00000+0 18111-3 0 9996 2 39090 98.3906 277.4685 0009855 89.2698 270.9618 14.37119391686615 BRITE-AUSTRIA 1 39091U 13009F 26095.49091406 .00000313 00000+0 12114-3 0 9998 2 39091 98.3976 276.7304 0011394 96.9232 263.3252 14.36512504686615 NEE-01 PEGASO 1 39151U 13018B 26095.37081516 .00003931 00000+0 38049-3 0 9997 2 39151 98.1111 237.1793 0013422 48.0763 312.1598 14.93304584699839 POPACS 2 1 39269U 13055E 26095.39763025 .00021922 00000+0 37405-3 0 9997 2 39269 80.9929 227.3881 0425438 67.5218 297.0458 14.89271300652377 POPACS 3 1 39270U 13055F 26095.57985945 .00007470 00000+0 18161-3 0 9996 2 39270 81.0008 307.8351 0556385 290.9428 63.3089 14.54592087627990 ZACUBE-1 (TSHEPISOSAT) 1 39417U 13066B 26095.47215957 .00006119 00000+0 47895-3 0 9994 2 39417 97.8145 57.4269 0044997 133.1453 227.3547 15.00600064669829 WNISAT-1 1 39423U 13066H 26095.39791018 .00001776 00000+0 32931-3 0 9998 2 39423 97.7095 249.7653 0164750 101.1547 260.8225 14.57967997656127 TRITON-1 1 39427U 13066M 26095.62419014 .00004096 00000+0 49381-3 0 9996 2 39427 97.8281 7.0930 0091940 110.4656 250.6457 14.81357971663344 GOMX-1 1 39430U 13066Q 26095.52276302 .00002986 00000+0 45502-3 0 9997 2 39430 97.6536 300.5538 0128031 311.3318 47.6927 14.69209781659244 CUBEBUG-2 (LO-74) 1 39440U 13066AA 26095.36972912 .00005384 00000+0 50425-3 0 9995 2 39440 97.8852 44.0974 0056637 268.9791 90.4939 14.93273013666126 NEE-02 KRYSAOR 1 39441U 13066AB 26095.30768422 .00004404 00000+0 48708-3 0 9992 2 39441 97.8853 35.0783 0065234 309.6855 49.8619 14.86356097665378 FUNCUBE-1 (AO-73) 1 39444U 13066AE 26095.44565921 .00011639 00000+0 73787-3 0 9992 2 39444 97.8239 65.4554 0039113 91.2345 269.3364 15.08447247668694 UWE-3 1 39446U 13066AG 26095.41167933 .00005897 00000+0 51235-3 0 9995 2 39446 97.8634 51.0598 0048989 200.4377 159.4885 14.96465020666694 BRITE-CA1 (TORONTO) 1 40020U 14033L 26095.60640064 .00002132 00000+0 32688-3 0 9992 2 40020 97.9619 225.9260 0079585 148.5236 212.0770 14.72557157631539 DUCHIFAT-1 1 40021U 14033M 26095.59354172 .00080467 00000+0 12531-2 0 9994 2 40021 98.0569 145.2611 0003126 340.9704 19.1430 15.53606353644442 NANOSATC-BR1 1 40024U 14033Q 26095.55896221 .00021291 00000+0 75206-3 0 9998 2 40024 98.0800 121.6203 0005248 87.1509 273.0330 15.29229138642878 QB50P1 1 40025U 14033R 26095.55962993 .00012069 00000+0 61107-3 0 9997 2 40025 98.1004 101.6711 0010542 111.1732 249.0627 15.17122704642013 QB50P2 1 40032U 14033Y 26095.43185199 .00010777 00000+0 59319-3 0 9993 2 40032 98.0756 87.8451 0009339 69.5059 290.7173 15.14205209641657 PERSEUS-M2 1 40037U 14033AD 26095.59619347 .00003006 00000+0 27807-3 0 9996 2 40037 97.9906 44.7008 0012057 173.1872 186.9515 14.95283772639936 PERSEUS-M1 1 40039U 14033AF 26095.57459864 .00003001 00000+0 27693-3 0 9990 2 40039 97.9585 38.5547 0011831 171.3306 188.8121 14.95386657639784 POLYITAN-1 1 40042U 14033AJ 26095.55149810 .00022670 00000+0 76180-3 0 9997 2 40042 98.1015 115.0667 0008616 53.7346 306.4688 15.30818004642479 TIGRISAT 1 40043U 14033AK 26095.41136935 .00002907 00000+0 34134-3 0 9991 2 40043 97.7730 247.1447 0048424 314.4450 45.2807 14.84865407634824 AEROCUBE 6A 1 40045U 14033AM 26095.46626678 .00009066 00000+0 77576-3 0 9996 2 40045 97.7163 263.2574 0037970 258.0350 101.6614 14.97263719635738 AEROCUBE 6B 1 40046U 14033AN 26095.40463595 .00010142 00000+0 83713-3 0 9995 2 40046 97.7145 262.8393 0036292 248.6960 111.0386 14.98669816635854 CANX-4 1 40055U 14034C 26095.59917711 .00001557 00000+0 20752-3 0 9994 2 40055 98.3227 328.2127 0011589 242.1840 117.8197 14.81133972633787 CANX-5 1 40056U 14034D 26095.59844501 .00001560 00000+0 20785-3 0 9991 2 40056 98.3229 328.2512 0011609 242.4079 117.5953 14.81150832624598 UKUBE-1 1 40074U 14037F 26095.55050904 .00011358 00000+0 65777-3 0 9992 2 40074 98.4247 91.2629 0002966 73.9349 286.2206 15.12413141637575 BRITE-PL2 (HEWELIUSZ) 1 40119U 14049B 26095.25797631 .00003922 00000+0 36970-3 0 9998 2 40119 97.9006 206.7466 0013772 358.1861 1.9307 14.94328731630552 AEROCUBE 5C 1 40965U 15058B 26095.47508229 .00003115 00000+0 28242-3 0 9992 2 40965 64.7657 128.7187 0129673 91.8408 269.7561 14.91041203354815 AEROCUBE 7 1 40966U 15058C 26095.47455516 .00004698 00000+0 38391-3 0 9996 2 40966 64.7608 112.4628 0119562 90.7241 270.7574 14.95142609355083 FOX-1A (AO-85) 1 40967U 15058D 26095.56577941 .00003083 00000+0 28427-3 0 9990 2 40967 64.7743 144.5904 0128307 85.1207 276.4540 14.90547430102749 SINOD-D 1 1 40968U 15058E 26095.39407977 .00004691 00000+0 38412-3 0 9994 2 40968 64.7736 126.7641 0116777 82.2079 279.2274 14.95309864105778 SNAP-3 ALICE 1 40970U 15058G 26095.42603956 .00106737 00000+0 19535-2 0 9994 2 40970 64.7564 352.9129 0032935 59.3050 301.1328 15.48162967105585 LMRST-SAT 1 40971U 15058H 26095.56997271 .00003066 00000+0 28417-3 0 9997 2 40971 64.7747 140.7800 0130320 87.1617 274.4402 14.90177616102735 SNAP-3 EDDIE 1 40972U 15058J 26095.08191102 .00093826 00000+0 16597-2 0 9992 2 40972 64.7485 345.3059 0033992 64.0603 296.4034 15.49143263107668 PROPCUBE 3 1 40973U 15058K 26095.44698129 .00004011 00000+0 33996-3 0 9995 2 40973 64.7669 119.7110 0122658 88.8068 272.7095 14.93746984103938 BISONSAT 1 40974U 15058L 26095.30869982 .00020200 00000+0 10161-2 0 9994 2 40974 64.7610 48.9709 0078636 79.0425 281.9533 15.14571729104574 SNAP-3 JIMI 1 40975U 15058M 26095.41018751 .00007667 00000+0 53748-3 0 9998 2 40975 64.7641 89.8898 0104788 85.2917 276.0158 15.01482733103293 PROPCUBE 1 (FLORA) 1 40976U 15058N 26095.59278689 .00003099 00000+0 29797-3 0 9998 2 40976 64.7742 160.1516 0129274 89.4075 272.1847 14.88833435105459 SINOD-D 3 1 40977U 15058P 26095.53250276 .00003986 00000+0 34442-3 0 9993 2 40977 64.7714 142.5957 0117682 87.1517 274.3058 14.93467617103905 HORYU-4 1 41340U 16012D 26095.49731924 .00128616 00000+0 10615-2 0 9991 2 41340 30.9906 239.7657 0006033 43.3550 316.7579 15.68798881559314 RAVAN 1 41849U 16067B 26095.61096935 .00046549 00000+0 86893-3 0 9991 2 41849 97.9983 337.1519 0004281 242.8252 117.2561 15.48635960516442 CELTEE 1 1 41850U 16067C 26095.56306392 .00007886 00000+0 38063-3 0 9995 2 41850 98.0766 317.1756 0002252 106.2531 253.8950 15.18975890514853 OPTICUBE 04 1 41851U 16067D 26095.55982267 .00003096 00000+0 19786-3 0 9996 2 41851 98.0780 304.0349 0015847 8.9964 351.1545 15.09359426514218 AEROCUBE 8D 1 41852U 16067E 26095.59759754 .00009315 00000+0 39459-3 0 9993 2 41852 98.0781 320.2630 0004306 45.4853 314.6733 15.23402574515015 AEROCUBE 8C 1 41853U 16067F 26095.56824802 .00010443 00000+0 43884-3 0 9999 2 41853 98.0653 317.5544 0004364 324.6255 35.4690 15.23633803515009 CORVUS BC2 1 42846U 17042X 26095.37615846 .00005095 00000+0 35440-3 0 9997 2 42846 97.3996 259.6109 0013215 9.4076 350.7396 15.05844910476107 CORVUS BC1 1 42847U 17042Y 26095.44553764 .00004327 00000+0 30031-3 0 9994 2 42847 97.4030 260.4428 0011326 346.1605 13.9310 15.06031358476145 MAKERSAT 0 1 43016U 17073D 26095.61046918 .00024999 00000+0 72642-3 0 9995 2 43016 97.4720 337.6959 0114325 169.8133 190.5464 15.29101771455360 SIRION PATHFINDER-2 1 43759U 18099B 26095.09374974 .00007959 00000+0 44290-3 0 9991 2 43759 97.4330 145.8955 0008841 183.3302 176.7873 15.13880959401568 CORVUS BC4 1 43767U 18099K 26095.59862860 .00006506 00000+0 38318-3 0 9992 2 43767 97.4150 140.7048 0006988 246.6960 113.3536 15.11920466401432 M2 PATHFINDER 1 45727U 20037E 26095.48640869 .00003914 00000+0 28475-3 0 9999 2 45727 97.8157 285.9049 0012284 43.1820 317.0366 15.04355735314569 NETSAT-4 1 46504U 20068U 26095.47531637 .00021812 00000+0 52117-3 0 9995 2 46504 97.8638 98.0075 0004916 198.7202 161.3863 15.41519381304564 NETSAT-3 1 46505U 20068V 26095.55346332 .00022908 00000+0 57073-3 0 9994 2 46505 97.8681 96.4078 0004056 216.9318 143.1648 15.40243565304492 NETSAT-1 1 46506U 20068W 26095.52168094 .00016506 00000+0 52086-3 0 9995 2 46506 97.8758 91.5248 0003200 253.0342 107.0548 15.32938460304160 NETSAT-2 1 46507U 20068X 26095.47040195 .00028858 00000+0 65509-3 0 9998 2 46507 97.8655 97.6699 0002182 225.8420 134.2647 15.43009343304518 GREENCUBE (IO-117) 1 53109U 22080E 26094.56827725 -.00000003 00000+0 00000+0 0 9995 2 53109 70.1528 323.8593 0009014 305.8170 54.1652 6.42583190 87336 SITRO-AIS 5 (KATYS) 1 57176U 23091L 26095.60503065 .00015373 00000+0 56618-3 0 9995 2 57176 97.5120 158.8830 0011410 6.7416 353.3975 15.27870458153254 SITRO-AIS 6 (CHIRKIN) 1 57192U 23091AC 26095.55753002 .00008427 00000+0 34139-3 0 9991 2 57192 97.5128 158.3163 0012187 10.4978 349.6511 15.24851681153215 SITRO-AIS 8 (ANOKHIN) 1 57193U 23091AD 26095.61143582 .00016461 00000+0 56327-3 0 9995 2 57193 97.5114 160.2004 0010453 3.7352 356.3965 15.30271993153343 SITRO-AIS 7 (FARTUSHNIY) 1 57194U 23091AE 26095.61234096 .00008127 00000+0 33206-3 0 9998 2 57194 97.5126 158.2311 0012118 11.2246 348.9260 15.24577724153216 SITRO-AIS 10 (BURDAEV) 1 57199U 23091AK 26095.47422564 .00025098 00000+0 71654-3 0 9991 2 57199 97.5131 164.4135 0005921 342.0397 18.0636 15.35998645153590 SITRO-AIS 9 (SHCHUKIN) 1 57201U 23091AM 26095.60959411 .00023094 00000+0 66843-3 0 9994 2 57201 97.5128 164.3342 0006144 341.7696 18.3326 15.35584968153605 SITRO-AIS 12 (SMIRENNIY) 1 57204U 23091AQ 26095.54832376 .00024551 00000+0 70441-3 0 9998 2 57204 97.5140 164.6951 0005689 335.6016 24.4958 15.35849676153612 SITRO-AIS 11 (SHEFFER) 1 57208U 23091AU 26095.58040834 .00023347 00000+0 66211-3 0 9998 2 57208 97.5138 164.9320 0005567 334.7630 25.3340 15.36224246153631 SITRO-AIS 25 1 59066U 24039R 26095.60062451 .00007477 00000+0 58966-3 0 9991 2 59066 95.3929 185.2285 0144884 221.1313 137.8921 14.92910788113890 SITRO-AIS 26 1 59067U 24039S 26095.59242138 .00007543 00000+0 59741-3 0 9998 2 59067 95.3925 185.1347 0145202 221.6751 137.3339 14.92717364113883 SITRO-AIS 27 1 59068U 24039T 26095.58260407 .00006994 00000+0 54935-3 0 9996 2 59068 95.3924 185.3669 0144433 220.4974 138.5434 14.93116815113908 SITRO-AIS 28 1 59071U 24039U 26095.49471360 .00006495 00000+0 51002-3 0 9990 2 59071 95.3928 185.3503 0144343 220.7031 138.3339 14.93153008113895 GRBBETA 1 60237U 24128C 26095.46607167 .00004907 00000+0 33997-3 0 9997 2 60237 61.9883 111.2937 0048963 119.3116 241.2882 15.06072619 95313 OOV-CUBE (TUBSAT-30) 1 60240U 24128F 26095.45249674 .00002993 00000+0 23402-3 0 9998 2 60240 61.9933 119.1263 0052274 117.8694 242.7706 15.02425780 95189 ROBUSTA-3A (MEDITERRAN*) 1 60243U 24128J 26095.54406165 .00007378 00000+0 44496-3 0 9999 2 60243 61.9848 104.9122 0049305 113.1291 247.5011 15.10585727 95444 LASARSAT 1 62391U 24247Q 26094.03099426 .00055577 00000+0 12740-2 0 9998 2 62391 44.9765 317.4987 0005379 237.3439 122.6930 15.42003564 71856 CROCUBE 1 62394U 24247T 26095.01134442 .00039986 00000+0 87808-3 0 9992 2 62394 44.9735 310.3631 0005083 240.7464 119.2917 15.43418094 72028 FORESAIL-1 PRIME 1 66778U 25276DS 26095.17414353 .00007275 00000+0 36056-3 0 9999 2 66778 97.4231 169.8061 0002762 36.0138 324.1281 15.18039378 19322 KNACKSAT-2 1 67683U 98067XZ 26095.56173917 .00046448 00000+0 70083-3 0 9997 2 67683 51.6318 298.1018 0010817 285.0563 74.9230 15.54221784 8968